Location: ??????????
(31.2156°N, 29.9553°E)
Time: 04:40:36
(UTC+00:00)

USA 238 - Pass Details

Date: 03 March 2021
Orbit: 994 x 1218 km, 63.4° (Epoch: 11 April)

Event Time Altitude Azimuth Distance (km) Brightness Sun altitude
Rises 17:45:26 0° 192° (SSW) 3,692 6.6 -23.3°
Reaches altitude 10° 17:48:03 10° 187° (S) 2,750 5.8 -23.9°
Enters shadow 17:53:20 47° 138° (SE) 1,314 3.8 -25.0°
